Location: Pilipovskiye Korichintsy
(49.1833°N, 27.4667°E)
Time: 22:24:23
(UTC+00:00)

Lacrosse 5 - Pass Details

Date: 14 July 2020
Orbit: 717 x 720 km, 57.0° (Epoch: 09 August)

Event Time Altitude Azimuth Distance (km) Brightness Sun altitude
Exits shadow 00:10:41 - 263° (W) 2,580 4.4 -14.7°
Reaches altitude 10° 00:11:42 10° 266° (W) 2,201 4.1 -14.6°
Maximum altitude 00:16:35 46° 340° (NNW) 969 2.8 -14.3°
Drops below altitude 10° 00:21:28 10° 54° (NE) 2,207 5.5 -13.9°
Sets 00:23:57 0° 60° (ENE) 3,129 6.3 -13.7°
